Weather History for KTTN - March, 2014

Change the Weather History Date:

Saturday, March 15, 2014

  Actual Average Record
Temperature  
Mean Temperature 51 °F 41 °F  
Max Temperature 59 °F 51 °F 78 °F (1990)
Min Temperature 42 °F 32 °F 10 °F (1993)
Degree Days  
Heating Degree Days 14 24  
Month to date heating degree days 452 390  
Since 1 July heating degree days 4538 4204  
Cooling Degree Days 0 0  
Month to date cooling degree days 0 0  
Year to date cooling degree days 0 0  
Growing Degree Days 2 (Base 50)    
Moisture  
Dew Point 25 °F    
Average Humidity 35    
Maximum Humidity 45    
Minimum Humidity 24    
Precipitation  
Precipitation T in 0.14 in 2.60 in (1912)
Month to date precipitation 0.22 1.89  
Year to date precipitation 7.88 7.36  
Sea Level Pressure  
Sea Level Pressure 29.84 in    
Wind  
Wind Speed 13 mph (West)    
Max Wind Speed 24 mph    
Max Gust Speed 35 mph    
Visibility 10 miles    
Events      
T = Trace of Precipitation, MM = Missing Value Source: NWS Daily Summary

Daily Weather History Graph

Daily Weather History Graph

Search for Another Location

Airport or City:

Trip Planner

Search our weather history database for the weather conditions in past years. The results will help you decide how hot, cold, wet, or windy it might be!

Date:

Astronomy

Mar. 15, 2014 Rise Set
Actual Time 7:10 AM EDT 7:06 PM EDT
Civil Twilight 6:43 AM EDT 7:33 PM EDT
Nautical Twilight 6:12 AM EDT 8:04 PM EDT
Astronomical Twilight 5:40 AM EDT 8:36 PM EDT
Moon 6:23 PM EDT (3/15) 6:21 AM EDT (3/15)
Length of Visible Light 12h 49m
Length of Day
11h 55m
Waxing Gibbous, 99% of the Moon is Illuminated
Mar 15
Waxing Gibbous
Mar 16
Full
Mar 23
Last Quarter
Mar 30
New
Apr 7
First Quarter

Hourly Weather History & Observations

Time (EDT) Temp. Windchill Dew Point Humidity Pressure Visibility Wind Dir Wind Speed Gust Speed Precip Events Conditions
12:53 AM 45.0 °F 40.1 °F 24.1 °F 44% 29.85 in 10.0 mi SW 9.2 mph - N/A   Mostly Cloudy
1:53 AM 46.0 °F 38.8 °F 24.1 °F 42% 29.83 in 10.0 mi SSW 18.4 mph 23.0 mph N/A   Overcast
2:53 AM 46.9 °F - 26.1 °F 44% 29.81 in 10.0 mi SSW 13.8 mph 24.2 mph N/A   Overcast
3:53 AM 46.0 °F 39.6 °F 26.1 °F 46% 29.79 in 10.0 mi SSW 15.0 mph - N/A   Overcast
4:53 AM 46.9 °F - 26.1 °F 44% 29.77 in 10.0 mi SSW 10.4 mph - 0.00 in   Overcast
5:53 AM 46.9 °F - 25.0 °F 42% 29.78 in 10.0 mi SW 10.4 mph - N/A   Mostly Cloudy
6:53 AM 46.9 °F - 26.1 °F 44% 29.77 in 10.0 mi SW 10.4 mph - N/A   Overcast
7:53 AM 48.0 °F - 25.0 °F 41% 29.81 in 10.0 mi WNW 8.1 mph 18.4 mph N/A   Overcast
8:53 AM 48.0 °F - 26.1 °F 42% 29.79 in 10.0 mi SW 8.1 mph - 0.00 in   Overcast
9:53 AM 51.1 °F - 27.0 °F 39% 29.80 in 10.0 mi SW 11.5 mph - N/A   Overcast
10:53 AM 55.9 °F - 28.9 °F 36% 29.81 in 10.0 mi WSW 15.0 mph 23.0 mph N/A   Clear
11:53 AM 57.0 °F - 30.0 °F 36% 29.80 in 10.0 mi West 13.8 mph 27.6 mph N/A   Overcast
12:53 PM 57.0 °F - 28.0 °F 33% 29.81 in 10.0 mi West 19.6 mph 25.3 mph N/A   Partly Cloudy
1:53 PM 57.9 °F - 23.0 °F 26% 29.81 in 10.0 mi West 16.1 mph 33.4 mph N/A   Clear
2:53 PM 59.0 °F - 25.0 °F 27% 29.80 in 10.0 mi WNW 15.0 mph 27.6 mph N/A   Clear
3:53 PM 57.0 °F - 27.0 °F 32% 29.81 in 10.0 mi NW 17.3 mph 26.5 mph N/A   Partly Cloudy
4:53 PM 57.0 °F - 21.9 °F 26% 29.83 in 10.0 mi WNW 18.4 mph 32.2 mph N/A   Clear
5:53 PM 55.0 °F - 19.9 °F 25% 29.86 in 10.0 mi WNW 18.4 mph 28.8 mph N/A   Clear
6:53 PM 54.0 °F - 19.9 °F 26% 29.88 in 10.0 mi WNW 16.1 mph 23.0 mph N/A   Clear
7:53 PM 51.1 °F - 21.9 °F 32% 29.92 in 10.0 mi WNW 10.4 mph 21.9 mph N/A   Clear
8:53 PM 50.0 °F - 21.0 °F 32% 29.96 in 10.0 mi WNW 12.7 mph 21.9 mph N/A   Clear
9:53 PM 48.0 °F - 21.9 °F 36% 29.97 in 10.0 mi NW 11.5 mph 19.6 mph N/A   Clear
10:53 PM 46.0 °F 41.9 °F 21.0 °F 37% 29.99 in 10.0 mi NW 8.1 mph 19.6 mph N/A   Clear
11:53 PM 45.0 °F 40.1 °F 23.0 °F 42% 30.01 in 10.0 mi NNW 9.2 mph 20.7 mph N/A   Clear